Wind_Speed
17 18 19 21 21 20 19 18 18 18 18 18 19 19 20 20 21 21 22 22 21 21 19 18 18 17 16 15 14 14 13 12 12 13 13 12 10 10 10 11 12 13 13 13 13 13 13 14 14 15 15 13 11 10 9 10 11 14 19 22 23 22 21 20 18 17 16 15 13 12 10 10 9 8 7 7 7 7 7 8 9 10 12 13 14
17 19 20 20 20 19 19 19 18 18 18 18 19 19 20 21 21 22 22 22 21 20 19 18 17 17 16 15 14 13 13 12 12 13 13 12 11 11 11 12 12 13 14 13 13 13 13 15 15 16 15 13 11 10 10 11 13 17 21 23 23 23 22 20 18 17 16 15 13 11 10 9 9 8 8 7 7 7 7 8 9 10 11 13 13
19 20 20 20 20 20 20 20 19 18 18 18 19 20 21 21 21 21 21 21 21 20 19 18 17 16 15 15 14 13 12 12 12 13 13 13 12 11 12 12 13 13 14 13 13 13 14 15 16 16 15 14 12 11 10 12 15 19 22 23 24 23 21 20 18 17 16 15 13 12 10 9 9 9 9 8 7 7 7 8 9 10 11 12 13
21 21 20 20 21 21 21 20 19 19 19 19 20 21 22 22 21 21 21 21 21 20 19 18 17 17 16 15 14 13 12 12 12 13 14 13 13 12 12 13 13 14 14 13 13 13 14 15 16 16 16 14 13 12 11 12 16 20 23 24 24 23 21 20 18 17 15 14 13 12 11 9 9 9 9 8 8 7 7 7 8 9 10 11 12
21 21 20 21 21 21 21 20 19 19 19 20 21 22 22 22 22 21 21 21 21 20 19 18 18 17 16 16 15 13 12 11 12 14 15 15 14 14 13 14 14 14 14 13 12 12 14 15 16 17 16 15 14 13 11 13 17 20 23 25 24 22 21 20 18 17 16 14 13 12 11 10 10 10 10 9 8 7 7 7 8 9 10 11 12
22 22 22 22 22 21 21 20 20 20 21 21 22 22 22 22 22 22 21 21 21 21 20 19 18 18 17 17 16 15 13 13 13 14 15 16 16 15 14 14 15 15 14 13 13 13 13 15 17 17 17 16 14 13 12 14 18 21 23 24 24 22 20 19 18 18 17 15 12 11 11 10 10 10 11 10 8 8 7 7 7 8 9 10 11
23 23 23 24 23 22 21 21 21 21 22 22 22 22 22 22 22 22 21 21 21 21 20 19 18 18 18 17 17 17 15 15 15 15 16 17 17 16 16 15 16 15 15 14 13 13 14 16 17 18 18 16 14 14 13 14 18 21 23 24 23 22 19 18 18 17 17 16 14 12 10 10 10 11 11 10 9 8 7 6 7 8 8 9 10
24 24 24 25 24 23 22 22 22 23 23 23 23 23 23 23 22 22 22 21 21 20 19 19 19 19 19 18 18 18 17 16 16 16 16 17 17 17 17 16 17 16 15 14 14 14 14 16 18 19 19 16 14 14 13 14 18 22 24 25 24 23 21 19 18 18 17 16 15 13 11 10 10 10 11 10 9 8 7 6 6 7 8 9 10
24 25 25 25 25 24 24 24 24 24 24 24 23 23 23 22 22 22 21 21 20 19 19 19 19 19 19 19 19 19 19 18 18 17 17 18 18 18 17 17 17 17 16 15 14 15 16 17 19 19 19 17 15 14 14 14 18 22 24 25 24 23 22 20 19 18 17 16 15 14 12 11 10 10 10 10 8 8 7 6 6 6 7 8 9
25 25 26 26 26 25 24 25 25 25 25 24 23 23 22 22 22 21 21 20 20 19 18 17 17 16 16 17 18 19 19 19 19 18 18 18 18 18 18 18 18 17 17 16 15 16 17 18 19 19 19 18 15 14 14 14 17 21 24 25 25 23 22 21 20 19 17 17 15 14 13 12 11 10 9 9 8 7 7 6 6 6 6 7 8
25 26 27 27 27 26 25 25 25 25 25 24 23 22 22 22 21 20 20 20 18 17 16 15 14 14 14 15 17 18 19 19 19 19 19 18 17 18 19 19 18 18 17 16 16 17 18 19 19 20 20 18 16 14 14 14 16 21 24 26 26 25 24 22 21 20 18 18 16 14 14 13 12 10 9 8 8 7 6 6 5 5 5 5 7
26 26 27 27 27 26 26 26 26 26 25 23 23 22 22 21 20 20 20 19 17 14 14 13 13 13 12 14 16 18 19 19 20 20 19 18 17 18 20 20 20 19 18 17 17 18 18 19 20 20 20 19 17 15 14 15 15 19 24 26 27 27 25 23 22 21 20 19 18 16 15 14 12 11 9 8 7 7 6 6 5 4 4 4 5
26 27 27 26 26 27 27 27 27 26 24 23 22 22 21 20 20 19 18 17 15 13 13 13 13 13 12 14 16 19 21 20 20 20 20 18 17 18 20 21 21 20 19 18 18 19 18 19 20 20 21 19 17 15 15 15 15 18 23 27 28 28 26 24 22 21 21 20 19 18 16 14 13 12 11 9 8 7 6 5 4 3 3 3 4
27 27 26 26 27 27 28 27 26 25 23 22 21 21 20 20 19 18 16 15 14 13 14 15 14 14 15 16 18 19 21 22 21 21 20 19 18 19 20 21 22 22 21 19 19 19 19 19 20 21 21 20 18 16 15 15 14 16 21 26 28 28 26 24 23 22 21 21 21 19 17 16 15 13 12 11 9 8 7 6 5 3 2 2 3
27 26 26 26 27 28 28 27 25 23 21 20 20 20 19 18 16 15 15 14 14 14 15 16 16 15 16 18 19 19 19 21 21 20 20 19 18 19 21 21 23 24 22 20 20 19 19 19 20 21 21 20 18 16 15 15 14 15 19 24 27 28 27 25 24 23 22 22 21 20 19 17 16 15 13 12 11 10 8 7 6 4 3 2 1
26 26 26 27 28 28 28 26 23 21 20 19 19 18 17 15 14 14 14 14 15 15 16 17 17 17 17 18 18 18 16 18 20 20 20 19 18 19 22 23 24 25 23 21 20 20 20 20 21 21 21 21 19 17 15 14 14 14 16 21 26 28 28 26 25 24 23 22 21 21 20 19 17 16 15 13 12 11 10 8 7 6 4 2 1
26 26 26 27 28 28 27 25 22 20 19 18 17 17 16 14 13 13 14 15 16 16 17 18 18 18 18 17 17 16 15 16 19 20 20 20 19 19 21 23 25 25 24 22 21 20 20 21 21 22 22 22 20 18 16 15 14 13 15 18 23 27 28 27 26 25 24 22 21 21 20 20 18 17 16 14 13 12 11 9 8 7 6 4 3
26 26 27 28 29 28 26 23 20 19 19 17 16 15 15 14 13 14 15 17 17 16 17 17 17 18 18 17 16 16 15 16 18 19 20 20 19 19 20 23 24 25 24 23 21 21 21 21 22 22 23 23 21 19 17 15 14 14 15 16 20 25 28 28 28 26 25 24 22 21 20 20 19 17 17 15 14 13 12 11 10 8 7 6 5
26 27 28 29 28 27 24 21 19 19 18 16 15 14 14 14 14 15 16 16 17 17 18 18 17 18 18 16 16 16 16 16 17 18 18 19 20 20 21 22 24 25 24 23 22 21 21 22 23 23 24 24 23 21 18 16 14 14 15 16 18 21 26 28 29 28 27 26 23 22 20 19 18 18 17 17 16 14 13 12 11 10 9 8 7
27 28 28 28 27 25 22 20 19 18 17 16 15 14 14 15 15 16 16 15 16 16 18 18 16 16 17 16 16 16 17 17 18 18 18 19 20 21 21 23 25 25 24 23 22 21 21 23 24 24 25 25 24 22 19 16 15 15 15 17 17 19 23 27 29 29 28 27 25 23 21 20 18 18 18 17 17 16 15 14 12 11 10 9 8
28 28 28 27 26 23 21 19 18 17 16 15 14 14 14 14 14 15 15 14 15 16 17 18 17 16 16 16 16 17 18 19 19 19 19 19 20 21 22 24 26 26 24 23 22 21 21 23 24 25 25 26 25 23 20 17 16 16 16 17 18 18 20 24 27 29 29 28 26 24 23 21 20 19 18 18 17 17 16 15 14 13 12 10 9
28 28 28 26 24 21 20 18 17 16 15 14 13 12 12 13 14 14 14 15 15 17 17 18 19 17 15 16 17 18 19 20 20 20 20 19 19 21 23 25 27 27 25 23 22 21 21 22 25 26 26 27 26 24 22 19 17 16 16 17 18 18 19 21 25 28 29 29 28 26 25 23 22 20 19 18 18 17 17 16 16 15 14 12 11
28 28 27 24 22 20 19 17 15 14 13 13 12 11 11 12 13 13 14 15 16 17 17 17 19 18 15 16 17 18 19 19 20 20 19 18 18 20 23 24 27 28 26 24 23 22 21 22 24 26 27 27 27 25 24 21 18 17 17 17 17 18 18 20 22 25 28 29 29 28 27 25 23 22 21 19 19 19 18 18 17 16 15 14 12
27 26 25 23 21 19 17 15 14 13 12 12 11 11 12 12 13 14 14 15 16 17 17 17 18 18 15 16 17 17 19 19 19 19 18 19 19 19 22 24 26 28 27 25 25 23 21 22 24 26 28 28 27 26 25 23 20 19 18 17 17 17 18 18 20 22 25 27 28 29 28 27 25 23 22 21 21 20 19 19 18 17 16 15 13
25 24 23 21 19 18 16 14 13 12 12 12 12 12 12 13 13 14 14 15 16 16 17 16 18 17 15 15 17 17 18 19 20 19 18 18 19 19 21 23 25 28 29 26 26 24 22 22 24 25 28 29 28 27 26 24 22 20 19 18 17 17 18 18 18 20 22 25 26 28 29 28 27 25 24 23 22 21 20 20 19 18 17 15 13
23 22 22 21 19 17 15 14 13 12 12 12 12 13 14 14 15 15 15 15 16 16 16 15 16 16 15 15 16 17 17 18 19 20 20 19 19 20 21 23 24 27 29 27 27 26 24 24 24 25 27 29 29 29 28 26 23 22 20 19 18 17 17 18 18 19 21 23 24 26 27 28 27 26 25 24 23 22 21 20 20 19 18 16 14
20 20 21 20 18 17 16 14 13 12 12 13 14 15 15 16 16 16 16 16 16 16 16 16 16 16 15 15 15 15 16 16 18 19 20 20 20 21 22 23 24 26 28 29 28 28 27 26 25 26 27 29 29 30 29 28 25 23 22 20 19 18 18 17 18 19 20 22 23 24 25 26 27 26 26 25 24 23 22 21 21 20 19 18 16
18 18 18 18 18 17 16 14 13 13 14 14 15 16 16 17 17 16 16 16 16 16 16 17 17 17 17 16 15 15 15 15 16 17 18 19 21 22 22 23 24 26 28 29 30 29 29 28 27 28 28 29 29 30 31 30 28 25 23 21 20 20 19 18 18 19 20 22 23 23 24 25 25 26 26 26 25 24 22 22 21 21 21 19 17
16 16 17 17 17 17 16 15 14 14 15 15 16 17 17 18 18 17 17 18 18 17 18 18 19 19 18 18 17 17 16 16 16 16 16 17 19 21 22 22 24 26 28 30 30 31 31 30 29 29 29 29 30 31 32 31 30 27 25 23 22 21 20 19 18 18 19 21 22 22 23 24 24 25 25 25 25 24 23 22 22 21 21 20 19
16 16 17 17 17 16 16 15 15 15 15 16 17 18 18 19 19 18 18 19 19 19 19 20 20 20 20 19 18 18 18 17 16 16 16 16 17 18 20 21 23 26 28 30 31 31 32 31 30 31 30 30 30 31 32 32 32 30 27 25 23 23 21 20 19 19 18 19 20 21 21 22 23 23 23 24 24 24 23 22 21 21 21 20 20
17 17 17 17 17 16 16 15 16 16 17 17 18 19 19 19 19 19 19 20 20 20 20 20 21 21 20 20 19 19 19 18 17 16 16 16 16 17 19 21 23 24 26 29 31 32 33 33 33 32 32 32 32 32 32 33 33 32 29 26 25 24 23 22 21 20 19 19 18 19 19 20 20 21 21 22 23 23 22 22 21 21 21 21 21
19 19 18 18 18 17 16 16 16 18 19 19 19 20 20 21 20 20 20 20 21 21 21 21 21 21 20 21 21 20 19 18 18 17 17 17 17 17 19 21 23 25 26 28 31 33 34 35 36 36 35 33 33 32 32 33 34 34 31 28 27 25 25 24 23 22 21 20 19 18 18 18 18 19 19 20 21 22 22 22 21 21 21 21 21
20 20 20 19 18 17 17 17 17 19 20 21 21 21 21 21 21 21 21 21 21 21 21 21 21 21 21 22 22 22 20 19 18 18 18 17 17 18 19 21 23 26 27 27 30 33 35 36 37 39 38 35 33 33 33 33 34 35 34 31 29 27 26 26 25 24 23 21 20 19 17 16 17 18 18 19 21 22 22 22 22 22 22 22 22
21 20 20 20 20 19 19 19 19 20 21 22 22 22 22 22 22 22 21 21 22 22 22 22 22 22 23 23 24 23 21 19 19 19 19 18 18 18 20 21 23 25 27 28 29 32 35 36 37 38 39 37 34 34 33 33 34 35 34 33 31 29 28 28 27 26 25 23 21 20 19 18 17 18 18 19 20 21 22 22 23 22 22 22 22
21 21 21 21 21 21 21 22 22 22 22 23 23 23 23 23 23 23 22 22 22 23 23 23 24 24 24 24 25 24 22 20 20 21 20 19 18 19 20 21 22 23 25 28 29 29 32 35 37 37 39 39 36 35 35 34 33 34 35 34 33 32 30 30 29 28 27 25 24 23 22 21 20 19 19 19 20 21 22 23 23 22 22 21 22
23 23 23 24 24 24 24 25 24 24 23 23 24 23 23 24 24 24 23 23 23 23 24 24 25 25 25 25 26 25 24 22 22 22 21 20 19 19 20 21 21 20 23 27 29 28 28 30 35 38 39 40 38 37 36 34 34 34 34 34 34 34 33 32 31 30 29 28 27 26 24 24 23 22 21 21 21 21 21 22 22 22 21 21 21
26 26 26 26 26 27 27 27 27 26 25 24 24 24 23 24 25 25 25 24 24 24 24 25 26 26 26 26 26 27 26 24 23 23 22 22 21 19 20 19 18 19 21 26 29 30 30 26 27 36 41 41 40 38 37 36 35 35 35 35 35 36 36 34 33 32 31 30 30 29 27 26 26 25 24 23 23 22 22 22 22 22 22 22 22
27 27 28 28 28 28 28 28 28 27 26 25 25 24 24 24 24 25 26 25 25 25 25 25 26 26 26 25 26 27 27 26 25 24 23 23 22 21 20 19 19 19 20 22 25 28 30 26 23 27 34 39 42 41 39 37 37 36 36 36 36 36 37 36 35 34 33 32 32 31 30 29 28 27 26 26 25 24 24 23 23 22 23 23 23
28 28 29 30 29 29 29 30 29 28 27 26 26 25 24 24 24 25 26 26 26 26 26 25 25 26 26 25 25 25 25 25 25 25 25 24 24 23 21 20 20 21 19 19 21 24 25 25 24 23 24 31 39 41 40 40 39 38 37 37 36 36 37 38 37 36 35 34 33 33 32 32 31 29 29 28 28 27 26 25 25 24 24 24 24
28 28 30 31 30 30 30 30 29 29 28 27 27 26 25 24 24 24 25 25 26 27 26 25 25 26 26 25 25 25 24 24 24 25 26 26 26 26 23 22 21 21 21 19 21 22 21 21 23 23 22 24 31 38 40 41 41 40 39 38 37 37 37 37 38 37 37 37 36 35 34 34 33 32 31 31 30 29 29 28 27 27 26 26 25
28 29 30 31 31 31 30 30 30 29 28 27 27 26 26 25 24 24 24 24 25 26 26 26 26 26 26 26 25 25 24 24 24 24 26 27 28 28 26 25 24 23 23 22 21 21 20 20 22 21 20 20 22 29 36 40 42 43 42 40 39 38 37 36 37 38 39 39 38 37 36 36 35 34 34 33 32 31 31 30 30 29 28 28 27
28 29 31 32 31 30 30 30 30 29 28 27 26 26 26 25 24 24 24 24 25 26 26 26 26 26 26 26 25 25 25 24 24 24 25 27 29 29 28 27 27 25 25 25 24 22 21 23 23 21 19 19 19 22 28 35 41 43 43 43 42 39 37 36 37 38 39 40 40 40 39 38 37 37 36 35 34 34 33 33 33 32 31 30 29
27 29 31 32 31 30 29 30 30 29 28 27 26 26 26 25 25 24 24 24 24 25 26 26 26 26 26 26 25 24 24 24 24 24 25 26 28 29 29 29 28 27 27 28 27 25 24 24 24 21 19 19 20 20 23 28 34 39 41 41 42 40 38 38 37 38 40 40 40 40 40 40 40 40 39 38 37 36 36 36 35 35 34 33 32
27 29 30 31 31 30 29 29 29 29 28 27 27 27 26 26 25 25 24 24 24 25 25 25 25 25 25 25 24 23 23 24 24 25 25 26 27 28 29 29 29 28 29 30 30 28 28 27 25 24 21 20 22 22 23 25 27 33 38 39 41 41 40 39 39 39 40 40 39 40 40 41 41 41 41 40 40 39 38 38 37 37 37 36 35
27 29 29 30 30 29 28 28 27 28 28 27 27 27 27 26 26 25 24 24 24 25 25 25 25 25 25 24 24 23 23 23 24 24 25 26 27 28 28 28 29 29 29 30 31 31 30 30 29 28 26 26 25 24 24 25 25 28 34 37 39 41 41 41 40 40 40 40 40 40 40 40 41 41 41 41 41 41 41 40 40 40 39 39 38
26 28 28 30 30 29 28 27 27 27 27 27 27 26 26 26 26 25 24 24 24 25 25 25 25 24 24 24 23 23 22 22 23 24 24 25 26 27 27 27 27 28 28 28 29 30 31 31 31 31 30 30 30 28 28 27 27 28 30 32 35 38 40 42 42 41 41 41 41 41 40 40 41 41 40 41 42 42 42 42 41 41 41 41 40
25 27 28 29 30 29 27 26 26 27 27 26 25 26 25 25 25 24 23 23 24 25 26 26 25 25 24 24 23 23 22 22 22 23 24 24 25 26 26 27 27 27 27 27 28 29 29 30 31 31 31 31 31 32 31 30 30 30 29 29 31 33 36 39 41 42 43 43 43 42 42 42 42 41 40 41 41 41 41 41 41 41 41 42 41
24 26 27 28 29 28 26 25 26 27 27 25 25 25 25 24 24 23 22 22 23 24 25 26 26 25 25 24 23 23 22 22 22 23 23 24 24 25 26 26 26 26 26 26 27 27 28 28 29 29 30 30 31 32 33 33 33 33 32 31 32 32 33 35 37 40 42 44 45 44 44 44 44 43 42 42 41 41 41 41 41 41 41 41 41
22 24 25 27 27 27 25 25 25 26 26 26 25 24 24 24 23 23 21 21 22 24 25 26 26 26 25 25 24 24 23 22 22 22 23 23 24 24 25 25 25 25 25 26 26 27 27 27 28 28 28 29 30 31 32 33 34 34 34 34 34 34 34 35 36 38 40 41 43 44 45 45 46 46 46 46 45 43 42 41 40 40 39 40 40
20 22 24 25 26 25 24 24 24 25 25 26 26 25 24 24 23 23 21 21 22 23 25 26 27 27 26 26 26 25 25 23 22 22 22 23 23 24 24 25 25 25 25 25 26 26 27 27 27 27 27 28 28 29 30 32 33 33 33 34 36 37 37 37 37 38 39 40 40 41 44 45 45 46 48 49 49 47 45 43 42 41 40 40 40
18 20 22 23 23 23 23 22 22 23 24 25 26 26 25 25 24 23 22 21 22 23 24 26 27 27 26 26 26 26 26 25 24 23 22 22 23 23 24 24 25 25 26 26 25 26 26 26 27 27 27 27 28 28 29 30 31 32 32 33 34 36 37 38 39 39 41 41 41 40 42 44 44 44 46 49 50 50 49 47 45 44 44 43 43
Wind_Direction
282 281 281 281 284 287 289 290 288 288 289 289 289 289 289 289 291 292 293 294 294 293 294 294 294 294 294 294 293 294 292 289 280 271 267 264 259 251 245 246 252 261 269 270 265 261 254 249 248 250 254 254 251 247 240 224 204 195 191 187 188 185 181 181 178 176 171 169 168 167 161 152 150 151 152 150 145 136 123 112 101 93 88 83 81
277 277 280 283 286 288 288 288 287 286 287 287 286 286 287 288 291 292 292 292 292 292 294 294 294 294 295 295 295 295 293 289 280 270 263 259 254 250 247 246 250 260 266 267 263 259 252 247 247 251 254 255 252 247 235 219 201 193 192 190 190 189 186 183 180 177 172 170 170 168 163 157 155 154 155 153 148 139 127 115 103 94 87 82 80
276 277 281 284 285 286 286 286 285 285 285 284 283 284 285 287 289 289 289 290 291 292 293 294 294 294 295 295 294 293 290 286 281 272 263 255 249 247 246 246 248 258 265 265 261 258 251 246 247 251 254 254 252 247 234 216 202 195 194 192 192 192 189 186 182 179 173 173 172 169 167 162 160 159 157 154 149 141 130 116 104 95 88 82 80
275 276 280 281 282 283 283 283 283 282 281 280 281 282 284 285 286 285 286 288 291 292 292 292 294 294 294 293 292 290 288 285 280 273 265 256 248 243 242 242 246 256 264 264 260 257 251 246 247 250 252 252 251 248 235 216 205 199 197 195 194 194 191 190 186 180 174 176 179 174 169 165 166 166 159 155 150 141 130 116 103 94 87 83 80
274 275 278 279 280 281 280 280 278 277 277 277 278 280 281 282 282 283 285 287 290 291 291 292 294 295 293 291 289 286 284 282 279 274 267 257 250 244 240 240 244 256 265 265 258 254 250 246 246 247 249 249 250 248 236 218 209 203 200 198 195 194 193 193 190 182 174 177 185 181 172 167 172 172 162 156 151 141 130 118 106 96 88 83 80
274 276 277 278 279 278 278 277 274 274 274 274 275 276 278 279 280 282 284 286 289 290 292 294 296 296 293 290 287 285 281 278 277 277 271 261 253 246 242 240 242 253 264 264 256 251 247 244 245 246 246 247 248 246 236 219 211 205 202 201 197 193 194 195 194 186 177 176 181 182 176 172 176 175 166 158 151 141 132 122 112 100 91 84 81
275 276 276 276 276 276 275 274 272 272 272 273 273 274 275 276 279 281 283 286 289 290 293 295 297 296 292 288 285 285 284 282 278 275 275 267 256 248 244 241 241 249 260 262 253 248 244 242 243 244 245 245 246 245 236 221 212 207 203 202 199 194 192 196 198 191 183 179 180 179 178 178 180 179 169 160 152 141 133 126 115 104 95 87 81
274 274 274 274 275 275 274 273 272 272 272 272 272 273 274 276 279 282 286 288 290 291 293 296 296 294 291 286 283 283 285 286 283 277 275 272 261 250 244 242 240 245 257 259 250 244 241 239 241 243 243 243 244 243 237 225 215 209 205 203 202 196 192 196 200 194 186 182 183 181 176 182 187 183 173 162 152 138 132 126 116 106 97 89 83
274 273 273 273 273 273 273 273 273 272 271 271 271 272 275 278 282 287 290 290 290 290 292 294 293 292 289 285 281 280 281 283 285 281 277 274 263 251 243 240 239 243 254 257 249 243 240 237 237 241 242 242 243 243 240 230 218 212 207 204 203 200 195 195 199 196 189 184 186 187 179 180 187 188 178 165 151 138 131 126 116 106 98 91 84
273 272 271 271 271 271 271 272 272 272 271 270 272 275 278 282 285 289 291 290 288 288 287 288 289 290 287 284 280 277 276 277 280 280 277 273 263 251 242 238 238 241 251 256 249 242 240 237 235 238 240 241 242 243 242 235 222 214 210 206 204 203 199 196 197 195 191 186 187 191 185 181 185 188 180 167 154 142 134 128 118 108 100 91 85
270 269 269 269 270 271 272 272 272 272 272 273 275 278 281 284 286 288 289 288 286 282 279 281 286 288 285 283 280 275 272 270 272 275 274 272 262 249 240 237 237 240 248 254 249 242 240 237 235 235 238 239 241 243 243 238 226 217 212 208 205 205 203 199 198 194 191 188 188 193 191 185 185 186 180 168 158 147 139 132 123 113 103 91 84
268 266 266 267 270 272 272 272 272 272 274 276 279 280 282 283 285 287 287 286 281 273 272 279 286 286 284 284 281 275 270 266 265 267 270 271 261 248 241 237 237 240 246 252 248 242 239 238 235 233 235 237 239 242 243 240 229 218 214 211 208 207 205 202 199 195 191 189 188 194 196 190 186 186 183 172 164 155 146 139 130 119 107 91 83
266 265 266 268 270 272 271 270 271 273 275 278 279 281 282 283 284 286 285 282 276 270 273 282 286 281 279 287 289 280 267 260 259 259 263 266 260 248 242 238 236 239 244 249 247 242 239 237 235 233 233 235 237 240 242 241 233 221 216 214 212 210 207 204 203 199 194 191 190 194 198 196 190 189 188 180 172 164 158 150 139 130 113 94 82
268 267 268 270 270 269 269 268 270 273 275 277 279 281 282 282 283 283 281 276 271 271 276 282 284 279 276 284 291 286 268 257 255 255 256 261 259 249 242 238 235 237 242 247 246 241 238 236 235 232 231 233 234 238 242 242 237 225 219 217 216 213 210 206 205 203 199 194 192 195 199 201 197 192 193 190 182 174 170 165 156 148 132 107 85
270 270 269 268 268 267 267 267 269 272 275 277 279 281 281 281 281 279 275 271 269 271 276 280 283 281 279 279 284 285 269 254 253 254 255 258 257 250 243 239 235 235 238 242 243 239 237 235 235 231 230 232 233 236 240 241 239 230 222 219 218 216 213 209 207 205 204 200 196 196 199 204 204 197 197 197 192 185 180 177 172 167 159 145 104
270 269 268 267 267 267 267 268 270 272 275 277 279 280 279 280 280 276 271 269 268 270 275 278 281 281 280 278 277 279 267 251 250 253 255 257 256 251 244 239 235 233 235 239 238 236 235 234 234 232 228 230 232 235 238 239 239 234 226 221 220 218 215 212 211 208 208 206 201 199 199 204 208 204 201 202 200 195 188 186 185 184 181 180 171
268 269 268 268 268 267 269 271 274 276 277 278 279 280 279 277 275 273 271 270 268 270 275 278 279 281 279 277 273 269 260 248 247 251 254 257 257 254 246 239 235 231 232 235 235 233 233 232 232 231 228 230 232 233 235 237 239 235 229 225 221 220 218 215 214 212 211 211 208 205 202 204 209 210 207 205 205 202 197 194 195 197 196 197 205
268 268 268 267 267 268 272 275 277 278 278 280 280 280 278 275 271 269 269 270 272 274 277 275 275 277 277 276 269 260 253 246 246 250 253 256 256 255 248 238 231 229 230 232 231 231 232 231 230 229 227 229 231 231 232 235 237 235 231 229 224 221 219 217 216 215 214 214 213 212 211 208 209 211 212 211 209 208 204 201 203 207 209 211 215
266 265 264 265 267 270 274 277 277 277 279 281 281 279 276 274 271 268 269 272 275 277 276 273 270 271 272 271 265 256 250 246 247 250 253 255 254 254 248 236 228 227 229 230 228 229 231 231 229 227 226 228 230 231 232 232 234 234 233 232 228 222 220 218 218 218 217 218 217 217 218 218 216 215 215 214 213 212 209 206 208 212 219 224 226
263 263 264 267 270 273 276 277 276 277 278 280 281 279 276 274 272 271 273 273 272 272 272 273 269 265 266 264 259 252 249 248 250 253 256 257 254 251 247 235 227 226 228 227 225 227 230 231 229 227 226 227 228 230 231 230 231 233 234 235 231 224 221 220 220 221 221 221 222 220 222 224 225 224 223 219 216 214 212 210 211 214 222 229 234
264 265 266 268 271 275 277 277 276 277 279 280 280 278 276 274 272 272 273 271 267 265 266 270 270 264 261 259 256 252 251 253 256 259 262 262 256 250 245 235 228 226 226 225 224 224 229 232 230 227 226 226 227 228 229 227 229 232 234 237 236 229 223 222 223 224 224 224 226 226 225 226 228 230 231 229 223 218 215 213 213 216 221 228 235
266 266 267 270 274 277 277 276 276 277 279 280 280 277 273 270 267 266 266 264 263 262 262 264 269 269 262 259 258 256 256 258 260 262 264 264 259 251 245 238 230 227 225 223 223 224 227 231 230 226 226 227 227 227 227 225 226 231 234 237 239 234 227 224 225 226 226 226 227 229 229 229 230 232 235 236 232 225 220 217 215 217 221 226 231
265 267 270 273 276 276 276 275 276 278 279 279 277 273 266 262 260 258 256 257 260 263 264 264 267 271 268 263 261 259 258 259 260 261 262 261 259 253 247 242 234 229 226 222 221 223 226 230 230 227 226 227 228 228 227 224 223 228 233 236 239 238 232 227 226 228 229 229 229 231 233 233 232 234 237 239 238 233 226 222 220 220 222 226 230
265 268 272 275 276 275 274 273 275 277 276 274 271 267 262 258 254 253 253 254 258 262 265 266 267 269 271 268 265 262 260 259 260 261 262 260 258 254 248 245 238 231 227 223 222 225 227 230 231 228 226 227 228 229 229 226 222 224 229 234 238 240 239 233 228 229 231 231 231 232 234 235 234 236 239 241 242 239 233 228 225 224 226 229 232
265 267 270 273 273 272 271 271 271 270 268 266 264 261 257 254 251 251 253 254 256 258 261 265 266 269 271 271 269 267 264 262 261 261 261 260 258 254 248 244 241 234 228 225 225 227 229 232 233 230 227 227 228 229 230 228 224 224 226 231 236 239 241 238 232 230 232 233 232 233 235 236 236 237 240 243 245 244 240 235 232 231 231 233 236
263 265 266 268 269 268 267 267 264 261 261 261 260 258 255 252 250 252 254 254 254 256 259 261 264 269 271 270 270 270 270 267 264 260 258 258 257 254 248 243 242 238 231 228 228 229 230 233 235 234 230 227 227 229 229 229 226 225 225 228 233 237 239 239 236 232 233 234 235 235 236 238 239 239 241 243 246 247 246 243 239 237 236 237 239
261 261 262 264 264 264 264 261 257 255 256 257 257 257 256 254 253 255 257 256 255 256 259 261 263 267 268 269 271 272 272 270 266 262 257 254 253 252 248 242 240 240 234 231 231 230 230 232 235 237 234 230 228 229 230 229 227 225 226 227 229 234 237 237 236 235 235 237 237 238 239 240 242 242 242 243 244 246 247 246 244 241 240 239 241
257 257 258 260 260 260 259 254 251 252 254 255 256 257 257 256 256 256 257 257 257 259 260 263 264 266 268 269 272 272 272 271 269 266 261 254 251 250 248 242 238 239 237 234 233 232 231 231 233 236 236 233 230 229 230 230 229 226 226 227 227 230 234 235 236 236 236 238 239 240 241 242 243 244 244 243 242 243 245 246 246 245 243 242 243
252 252 253 254 255 255 252 249 249 252 255 258 259 259 259 259 260 259 257 257 258 259 260 262 264 265 268 269 270 271 272 272 271 268 265 259 253 250 250 247 240 238 238 236 233 232 232 231 232 235 235 234 232 230 230 231 231 227 225 226 227 228 231 232 233 235 236 238 239 240 242 243 244 245 244 243 243 243 244 245 246 247 247 245 244
249 248 248 247 246 247 250 252 254 255 256 259 261 262 263 263 263 262 260 259 260 260 259 261 263 264 267 269 269 270 270 271 271 268 265 263 259 253 251 250 245 240 237 237 236 233 232 231 230 233 235 234 233 231 230 231 232 230 225 225 226 228 230 231 233 233 235 236 237 238 240 242 244 245 244 243 242 242 244 245 245 247 248 247 245
252 248 244 239 238 241 247 254 259 262 261 261 263 264 265 266 265 264 262 262 262 261 261 261 263 265 267 269 268 268 268 268 269 268 265 261 258 254 250 249 248 244 238 236 237 234 232 231 229 231 233 234 232 231 231 231 232 232 228 224 225 228 229 230 232 232 232 233 233 234 236 239 242 243 243 242 240 240 241 242 243 244 246 246 245
258 252 245 241 240 242 248 252 257 262 265 265 265 266 267 267 266 265 264 263 262 262 262 262 263 265 266 267 267 266 265 265 265 266 264 260 256 253 250 248 248 248 242 236 236 236 234 233 232 232 232 231 231 230 230 230 232 232 230 225 224 226 228 229 231 231 230 229 229 230 233 237 240 241 240 239 238 237 236 237 238 240 242 242 242
261 256 252 251 250 253 255 257 258 261 264 267 268 269 269 269 269 267 265 264 262 262 261 261 261 262 263 263 264 263 262 262 262 262 262 260 257 254 252 249 247 248 246 240 236 235 236 236 236 236 233 229 230 230 229 230 231 232 231 227 224 225 228 229 232 233 232 230 228 229 232 236 240 242 241 239 237 236 235 235 236 238 239 240 241
260 259 258 259 259 261 263 264 264 263 265 268 269 270 271 271 271 269 267 265 263 261 260 260 260 260 260 262 263 263 262 262 261 260 258 257 256 255 255 253 251 249 248 244 239 236 237 237 239 239 232 226 227 229 230 229 230 232 232 229 226 224 226 229 231 234 235 234 230 229 231 233 236 240 242 242 240 239 239 239 239 240 240 241 242
264 264 264 265 265 265 266 267 267 266 266 268 269 271 271 271 271 270 268 266 264 263 262 261 261 262 262 264 265 264 264 263 261 259 256 255 254 254 256 256 255 253 249 245 240 237 237 237 241 240 231 225 226 227 228 229 229 232 233 231 228 226 226 227 229 232 235 236 233 231 231 232 234 236 239 241 242 243 243 245 246 246 246 246 246
270 269 269 269 268 268 267 267 267 266 266 266 267 269 271 271 271 270 269 266 265 264 264 264 264 264 264 265 266 265 264 262 261 259 256 255 253 252 255 255 255 256 251 244 240 238 236 236 239 239 231 225 226 226 227 229 229 231 233 232 230 228 228 228 228 230 233 236 236 234 233 234 235 237 239 240 242 243 244 247 249 250 250 249 247
273 272 271 271 270 269 268 268 267 267 266 266 266 267 269 270 270 271 270 269 267 265 265 266 266 266 266 265 266 266 264 261 259 257 254 253 251 249 251 253 256 258 253 244 238 237 241 242 239 235 230 227 227 228 227 229 230 230 232 233 231 229 229 229 229 231 232 234 237 237 236 235 236 238 240 242 244 245 246 247 248 249 250 250 248
274 273 272 271 270 270 270 269 268 268 268 267 266 267 267 267 267 268 269 269 268 266 265 265 266 267 266 265 264 264 263 261 258 255 252 250 249 248 248 251 254 255 254 246 237 235 242 248 246 238 231 227 228 228 228 229 231 231 231 233 233 231 230 230 230 232 233 234 236 238 238 237 237 238 240 243 246 248 249 250 250 250 250 251 250
274 273 272 270 270 270 270 270 270 271 271 270 269 268 267 265 263 263 264 265 266 266 264 264 264 265 265 264 262 261 260 260 258 255 251 247 247 247 246 248 251 253 258 255 241 233 238 244 247 247 239 231 228 228 228 229 230 231 232 233 234 233 232 231 231 232 233 234 235 237 238 239 239 239 240 242 245 247 249 251 252 253 253 253 253
270 271 271 271 270 270 270 271 272 272 272 272 271 269 267 264 262 260 260 261 262 263 263 263 262 263 263 262 261 260 258 258 257 255 251 246 244 244 242 242 246 250 255 257 247 238 239 242 242 242 242 236 230 228 230 231 231 231 232 232 233 233 233 232 232 232 233 234 235 236 237 239 240 241 241 241 243 246 248 250 251 252 254 255 255
267 267 268 269 269 269 269 271 272 271 271 271 269 268 266 264 262 260 259 259 260 261 262 262 262 261 261 260 260 259 257 255 254 253 250 246 244 243 240 238 239 242 246 249 248 244 244 245 243 242 242 238 232 228 229 232 233 232 232 231 231 232 233 233 233 233 233 234 235 235 236 238 240 241 242 242 243 245 248 249 250 250 252 253 255
267 265 265 265 266 267 268 269 269 269 269 269 268 266 266 264 261 260 259 258 259 260 261 261 261 261 261 260 258 257 256 254 252 251 249 246 245 244 241 238 237 237 240 244 246 244 242 241 242 242 240 236 235 232 229 231 233 233 232 232 232 232 232 233 234 234 234 235 235 236 236 237 239 240 241 242 243 244 246 248 249 250 251 252 253
264 263 263 264 265 266 266 266 267 268 268 267 266 265 265 264 262 259 258 257 257 259 260 260 260 260 260 260 258 255 254 253 251 250 249 246 245 244 242 241 239 236 237 241 245 244 242 241 241 241 240 238 239 238 235 235 235 234 233 233 233 233 232 232 233 234 234 235 235 236 237 237 238 239 240 241 242 243 245 246 248 250 251 252 252
260 261 262 264 265 265 264 264 265 266 266 265 264 264 264 263 262 260 258 257 256 257 258 259 259 259 258 258 257 255 253 252 250 249 249 249 247 246 244 243 241 238 236 238 242 243 242 242 242 242 243 244 242 240 240 239 237 236 235 234 234 234 233 232 232 234 235 236 236 236 237 238 239 239 240 241 242 243 244 245 247 249 250 251 252
259 260 262 264 265 265 264 263 263 262 262 263 263 263 264 263 263 261 260 258 257 256 257 257 258 257 257 257 256 254 253 251 251 249 248 249 249 249 248 246 244 242 239 238 240 241 241 241 241 241 242 244 244 243 242 240 238 237 236 235 236 236 235 235 234 235 236 237 237 237 237 238 239 240 240 241 242 243 244 245 246 248 250 251 252
258 260 262 263 264 264 263 262 260 259 259 260 261 262 264 264 263 263 261 260 259 258 258 258 257 256 256 256 255 254 252 251 251 250 248 248 248 249 249 249 248 246 243 241 241 241 242 242 242 242 241 242 244 244 242 240 239 238 238 237 238 238 237 237 237 238 238 238 239 240 239 239 239 240 241 242 243 244 244 245 246 248 250 251 253
254 257 259 261 262 262 261 260 257 257 257 259 260 261 262 262 262 262 261 260 260 260 260 259 258 257 255 255 255 255 254 252 250 250 250 249 248 249 250 250 249 249 247 245 245 244 244 243 244 244 244 244 244 244 244 243 241 240 239 238 238 239 240 239 240 241 242 241 241 241 241 242 242 242 241 242 243 244 245 245 246 247 249 251 253
251 254 256 257 259 260 259 258 257 257 258 259 260 260 260 260 260 259 259 259 260 260 261 261 261 259 257 255 254 253 253 252 251 250 250 249 249 249 250 250 250 249 249 248 247 247 247 246 245 246 246 246 245 246 245 245 243 242 240 240 240 240 240 241 241 243 244 245 245 244 244 244 245 245 244 244 244 244 244 245 247 248 249 251 253
252 254 256 258 260 261 260 258 258 258 259 259 259 258 258 258 259 258 257 257 259 260 261 263 263 262 260 257 255 253 251 250 249 248 248 248 248 249 250 251 251 250 249 248 248 248 249 249 248 247 247 248 247 247 248 247 247 245 243 242 242 243 242 242 243 244 245 245 246 247 248 247 248 248 248 247 246 246 246 246 247 249 250 252 254
253 256 258 260 261 262 262 259 257 257 258 258 258 257 256 256 256 256 256 256 257 258 260 262 264 264 262 261 259 257 254 251 249 248 247 247 247 247 248 249 251 252 251 250 248 247 247 248 249 249 248 248 248 249 249 250 250 249 247 245 245 246 246 245 245 246 246 245 245 247 250 251 251 252 252 250 247 246 247 247 249 250 251 253 254
252 255 258 261 263 264 263 262 260 258 257 259 260 260 258 256 254 254 254 254 255 256 257 258 260 262 263 263 262 261 259 257 254 251 249 247 246 246 245 245 247 249 251 251 250 249 248 248 248 249 249 249 249 249 249 250 251 251 251 249 248 248 249 248 247 247 247 247 245 245 248 251 253 254 255 253 249 247 248 248 249 250 252 253 254
Height
5854 5854 5853 5852 5852 5852 5852 5852 5852 5851 5851 5850 5850 5850 5850 5850 5850 5849 5849 5849 5848 5848 5847 5847 5846 5846 5845 5845 5845 5845 5845 5845 5846 5846 5846 5847 5848 5849 5850 5850 5851 5851 5851 5851 5851 5851 5851 5851 5851 5851 5851 5852 5852 5852 5852 5853 5854 5855 5856 5856 5857 5857 5857 5858 5859 5860 5861 5862 5862 5862 5862 5862 5863 5863 5864 5864 5864 5864 5864 5864 5865 5864 5864 5864 5863
5853 5852 5851 5851 5851 5851 5851 5851 5850 5850 5849 5849 5849 5848 5848 5848 5848 5848 5848 5847 5847 5847 5846 5846 5845 5844 5844 5844 5844 5844 5844 5845 5845 5845 5846 5846 5847 5848 5849 5849 5850 5850 5850 5850 5850 5850 5850 5850 5851 5851 5851 5852 5852 5852 5852 5853 5854 5855 5856 5856 5857 5857 5858 5858 5860 5861 5862 5862 5862 5862 5863 5863 5863 5863 5864 5864 5864 5864 5865 5865 5865 5865 5865 5864 5864
5851 5851 5850 5850 5849 5849 5849 5849 5849 5848 5848 5848 5847 5847 5847 5847 5847 5846 5846 5846 5846 5845 5845 5844 5844 5843 5843 5843 5843 5843 5843 5844 5844 5844 5845 5845 5846 5847 5848 5848 5849 5849 5849 5850 5850 5850 5850 5850 5850 5850 5851 5852 5852 5852 5852 5853 5854 5855 5856 5856 5856 5857 5858 5859 5860 5861 5862 5862 5862 5863 5863 5863 5864 5864 5864 5864 5865 5865 5865 5866 5866 5866 5865 5865 5865
5850 5849 5849 5849 5848 5848 5848 5848 5847 5847 5847 5847 5846 5846 5846 5845 5845 5845 5844 5844 5844 5844 5843 5843 5843 5842 5842 5842 5842 5842 5842 5843 5843 5843 5844 5844 5845 5846 5847 5847 5848 5848 5848 5849 5849 5849 5849 5849 5850 5850 5851 5851 5852 5852 5852 5853 5853 5854 5855 5856 5856 5857 5858 5859 5861 5862 5863 5863 5863 5863 5863 5864 5864 5864 5864 5865 5865 5866 5866 5866 5866 5867 5866 5866 5866
5848 5848 5848 5847 5847 5847 5847 5846 5846 5846 5846 5845 5845 5844 5844 5844 5844 5843 5843 5843 5843 5842 5842 5842 5841 5841 5841 5840 5840 5841 5841 5842 5842 5842 5843 5843 5844 5845 5845 5846 5847 5847 5848 5848 5848 5848 5849 5849 5849 5850 5850 5851 5852 5852 5852 5852 5853 5854 5855 5856 5856 5858 5859 5860 5861 5862 5862 5863 5863 5863 5863 5864 5864 5864 5865 5865 5866 5866 5867 5867 5867 5867 5867 5867 5866
5846 5846 5846 5846 5846 5845 5845 5845 5845 5844 5844 5844 5844 5843 5843 5842 5842 5842 5842 5841 5841 5841 5840 5840 5840 5840 5839 5839 5839 5839 5840 5840 5841 5841 5841 5842 5843 5844 5844 5845 5846 5847 5847 5847 5848 5848 5848 5849 5849 5849 5850 5851 5852 5851 5852 5852 5853 5854 5855 5856 5857 5858 5859 5860 5861 5862 5862 5863 5864 5864 5864 5864 5864 5865 5865 5866 5866 5866 5867 5867 5868 5868 5868 5868 5867
5844 5844 5844 5844 5844 5844 5843 5843 5843 5843 5843 5842 5842 5842 5841 5841 5841 5841 5840 5840 5840 5839 5839 5839 5839 5838 5838 5838 5838 5838 5838 5839 5839 5839 5840 5841 5841 5842 5843 5844 5845 5845 5846 5847 5847 5847 5847 5848 5848 5849 5850 5851 5851 5851 5851 5852 5853 5854 5855 5857 5857 5858 5859 5861 5862 5862 5863 5863 5863 5864 5864 5864 5865 5865 5866 5866 5866 5867 5867 5868 5868 5868 5868 5868 5868
5842 5842 5842 5842 5842 5842 5841 5841 5841 5841 5841 5841 5840 5840 5840 5839 5839 5839 5839 5839 5838 5838 5838 5838 5837 5837 5837 5837 5837 5837 5837 5838 5838 5838 5839 5839 5840 5841 5842 5843 5844 5844 5845 5846 5846 5846 5847 5847 5848 5848 5849 5850 5851 5851 5851 5852 5852 5853 5855 5856 5857 5858 5859 5860 5862 5862 5863 5863 5863 5863 5864 5865 5865 5866 5866 5867 5867 5867 5868 5868 5869 5869 5868 5868 5868
5840 5840 5840 5840 5839 5839 5839 5839 5839 5839 5839 5839 5839 5838 5838 5838 5838 5838 5838 5837 5837 5837 5837 5837 5836 5836 5836 5835 5836 5836 5836 5836 5836 5837 5837 5838 5839 5840 5841 5842 5842 5843 5844 5845 5846 5846 5846 5846 5847 5848 5849 5850 5851 5850 5851 5851 5852 5853 5854 5856 5857 5858 5858 5859 5861 5862 5863 5863 5864 5864 5864 5865 5866 5866 5867 5867 5868 5868 5868 5868 5869 5869 5869 5869 5869
5838 5838 5838 5837 5837 5837 5838 5838 5837 5837 5837 5837 5837 5837 5836 5836 5836 5836 5836 5836 5836 5836 5835 5835 5835 5835 5834 5834 5834 5834 5834 5835 5835 5835 5836 5836 5837 5838 5839 5840 5841 5842 5843 5844 5845 5845 5845 5846 5846 5848 5849 5849 5850 5850 5850 5851 5852 5852 5854 5856 5857 5858 5858 5859 5860 5862 5862 5863 5864 5864 5864 5865 5866 5866 5867 5868 5868 5868 5868 5869 5869 5869 5869 5869 5869
5836 5836 5835 5835 5835 5836 5836 5836 5835 5835 5835 5835 5835 5835 5835 5835 5835 5835 5835 5834 5834 5834 5834 5834 5834 5834 5833 5833 5832 5832 5833 5833 5834 5834 5834 5835 5836 5837 5838 5839 5840 5841 5842 5843 5844 5844 5844 5845 5846 5847 5848 5849 5849 5850 5850 5850 5851 5852 5853 5855 5856 5857 5858 5859 5860 5861 5862 5863 5863 5864 5864 5864 5865 5866 5867 5868 5869 5869 5869 5869 5869 5869 5869 5869 5869
5834 5833 5833 5833 5834 5834 5834 5833 5833 5833 5833 5834 5834 5834 5834 5833 5833 5833 5833 5833 5833 5833 5833 5833 5832 5832 5832 5832 5831 5831 5831 5831 5831 5832 5833 5833 5834 5835 5836 5837 5838 5840 5841 5842 5843 5843 5843 5844 5845 5846 5847 5848 5849 5849 5849 5850 5851 5852 5853 5854 5855 5856 5857 5858 5859 5860 5861 5862 5862 5863 5864 5864 5865 5866 5867 5868 5869 5869 5869 5869 5869 5869 5870 5870 5870
5831 5831 5831 5832 5832 5832 5832 5831 5831 5832 5832 5832 5832 5832 5832 5832 5832 5831 5831 5831 5831 5831 5831 5831 5831 5831 5831 5831 5830 5830 5829 5829 5829 5830 5831 5832 5833 5834 5835 5836 5837 5838 5839 5840 5842 5842 5842 5843 5844 5846 5846 5847 5848 5848 5849 5849 5850 5851 5852 5853 5854 5856 5857 5858 5859 5860 5860 5861 5861 5862 5863 5864 5865 5866 5867 5868 5869 5869 5869 5869 5870 5870 5870 5870 5870
5829 5829 5830 5830 5830 5829 5829 5829 5830 5830 5831 5831 5830 5830 5830 5830 5830 5830 5830 5830 5830 5830 5830 5830 5830 5830 5830 5829 5829 5828 5827 5827 5828 5828 5829 5830 5831 5832 5833 5834 5835 5836 5837 5839 5840 5841 5841 5842 5843 5845 5846 5846 5847 5848 5848 5849 5849 5850 5851 5852 5854 5855 5857 5858 5859 5860 5860 5860 5861 5861 5863 5864 5865 5866 5867 5867 5868 5869 5869 5870 5870 5870 5870 5870 5871
5827 5828 5828 5827 5827 5827 5827 5827 5828 5829 5829 5829 5829 5829 5828 5828 5828 5828 5828 5828 5829 5829 5829 5829 5829 5829 5829 5828 5827 5826 5826 5826 5826 5827 5828 5829 5829 5830 5831 5832 5833 5835 5836 5837 5839 5840 5840 5841 5842 5844 5845 5846 5846 5847 5848 5848 5849 5850 5850 5851 5853 5855 5856 5858 5858 5859 5860 5860 5860 5861 5862 5863 5864 5865 5866 5867 5868 5868 5869 5870 5870 5870 5870 5870 5871
5825 5825 5825 5825 5825 5825 5825 5825 5826 5827 5827 5827 5827 5827 5826 5826 5827 5827 5827 5827 5827 5827 5827 5827 5827 5827 5827 5826 5825 5825 5824 5824 5825 5826 5826 5827 5828 5828 5829 5830 5832 5833 5834 5836 5837 5838 5839 5840 5841 5843 5844 5845 5846 5846 5847 5848 5848 5849 5850 5850 5852 5854 5855 5857 5858 5859 5860 5860 5860 5860 5861 5862 5864 5865 5866 5867 5867 5868 5869 5869 5870 5870 5870 5870 5871
5822 5822 5822 5822 5822 5822 5822 5823 5824 5825 5825 5825 5825 5824 5825 5825 5825 5825 5826 5826 5825 5826 5826 5826 5826 5825 5825 5824 5823 5823 5823 5823 5824 5824 5825 5825 5826 5827 5828 5829 5830 5831 5833 5834 5836 5837 5837 5838 5839 5841 5843 5844 5845 5845 5846 5847 5848 5848 5849 5849 5851 5852 5854 5856 5857 5858 5859 5860 5861 5861 5861 5861 5863 5864 5865 5866 5867 5868 5869 5869 5870 5870 5870 5870 5871
5820 5820 5819 5819 5819 5820 5821 5822 5822 5822 5823 5823 5823 5823 5823 5823 5824 5824 5824 5824 5824 5824 5824 5824 5824 5823 5823 5822 5822 5822 5822 5822 5822 5823 5823 5824 5824 5825 5826 5827 5828 5830 5831 5833 5834 5835 5836 5837 5838 5840 5842 5843 5844 5844 5846 5847 5847 5847 5848 5848 5850 5851 5853 5855 5856 5857 5858 5859 5860 5861 5861 5861 5862 5863 5865 5866 5867 5868 5869 5869 5870 5870 5870 5870 5870
5817 5817 5816 5817 5817 5818 5819 5820 5820 5820 5820 5821 5821 5821 5821 5822 5822 5822 5822 5822 5822 5822 5822 5822 5822 5821 5821 5820 5820 5821 5821 5821 5821 5821 5822 5822 5823 5823 5824 5826 5827 5829 5830 5831 5832 5833 5834 5835 5836 5838 5840 5841 5842 5843 5845 5846 5846 5847 5847 5847 5848 5850 5852 5854 5855 5856 5857 5858 5859 5860 5860 5861 5862 5863 5864 5865 5866 5867 5868 5869 5869 5870 5870 5870 5870
5814 5814 5814 5814 5815 5816 5817 5818 5818 5818 5819 5819 5819 5819 5819 5820 5820 5820 5820 5821 5821 5821 5820 5819 5819 5819 5819 5819 5819 5819 5820 5820 5820 5820 5820 5821 5821 5822 5823 5824 5826 5827 5828 5830 5831 5832 5833 5834 5835 5837 5839 5840 5841 5842 5843 5845 5846 5846 5846 5846 5847 5849 5850 5852 5853 5854 5856 5857 5858 5859 5860 5861 5861 5862 5863 5864 5865 5866 5867 5868 5868 5869 5869 5870 5870
5812 5812 5812 5813 5814 5815 5816 5816 5816 5817 5817 5817 5817 5817 5818 5818 5818 5818 5818 5819 5819 5818 5818 5818 5817 5818 5818 5817 5817 5818 5818 5818 5819 5819 5819 5820 5820 5821 5821 5823 5824 5825 5827 5828 5830 5830 5831 5833 5834 5835 5837 5838 5840 5841 5842 5844 5845 5845 5845 5845 5846 5848 5849 5851 5852 5853 5855 5856 5857 5858 5859 5859 5860 5861 5862 5863 5864 5865 5866 5866 5867 5868 5868 5869 5869
5810 5810 5810 5811 5812 5813 5814 5814 5814 5815 5815 5815 5815 5815 5815 5816 5816 5816 5816 5816 5816 5816 5816 5816 5815 5815 5816 5816 5816 5816 5817 5817 5817 5817 5818 5819 5819 5819 5820 5821 5822 5824 5825 5827 5828 5829 5830 5831 5832 5834 5835 5837 5838 5840 5841 5843 5843 5844 5844 5845 5845 5847 5848 5849 5851 5852 5853 5855 5856 5857 5858 5859 5859 5860 5861 5862 5863 5864 5864 5865 5866 5866 5867 5868 5868
5808 5808 5809 5810 5811 5811 5811 5812 5812 5813 5813 5813 5813 5813 5813 5814 5814 5814 5815 5814 5814 5814 5814 5814 5814 5813 5814 5814 5814 5815 5815 5815 5815 5816 5816 5817 5817 5818 5818 5820 5821 5822 5824 5825 5826 5827 5828 5829 5831 5832 5834 5835 5837 5838 5839 5841 5842 5843 5843 5844 5844 5845 5847 5848 5849 5850 5851 5853 5855 5855 5856 5857 5858 5859 5860 5861 5862 5862 5863 5864 5865 5865 5866 5866 5867
5805 5806 5807 5808 5809 5809 5810 5810 5810 5811 5811 5811 5811 5812 5812 5812 5812 5812 5813 5813 5812 5812 5812 5812 5812 5812 5812 5812 5813 5813 5813 5813 5813 5814 5815 5815 5815 5816 5817 5818 5819 5821 5822 5823 5825 5826 5827 5828 5829 5831 5832 5834 5836 5837 5838 5840 5841 5841 5842 5843 5843 5844 5845 5846 5848 5849 5850 5852 5853 5854 5855 5856 5857 5858 5859 5860 5860 5861 5862 5863 5864 5864 5865 5866 5866
5803 5805 5806 5806 5807 5807 5808 5808 5808 5809 5809 5810 5810 5810 5810 5810 5810 5810 5811 5811 5811 5811 5811 5810 5810 5810 5810 5811 5811 5811 5811 5811 5811 5812 5813 5813 5813 5814 5815 5816 5817 5818 5820 5821 5823 5824 5825 5826 5827 5829 5830 5832 5834 5835 5837 5838 5840 5840 5841 5842 5842 5843 5843 5845 5846 5848 5849 5850 5851 5852 5853 5854 5856 5857 5858 5859 5859 5860 5861 5862 5863 5864 5864 5865 5865
5801 5803 5803 5804 5805 5805 5806 5806 5807 5807 5808 5808 5808 5808 5808 5808 5809 5809 5809 5809 5809 5809 5809 5809 5809 5809 5809 5809 5809 5809 5809 5809 5810 5810 5811 5811 5812 5812 5812 5814 5815 5816 5817 5819 5821 5822 5824 5825 5826 5827 5828 5830 5832 5833 5835 5837 5838 5839 5840 5841 5841 5841 5842 5843 5845 5846 5847 5848 5849 5851 5852 5853 5854 5856 5857 5858 5858 5859 5860 5861 5862 5863 5863 5864 5865
5799 5800 5801 5802 5803 5803 5803 5804 5805 5806 5806 5806 5806 5806 5806 5807 5807 5807 5807 5807 5807 5808 5808 5808 5808 5807 5807 5807 5808 5807 5807 5807 5808 5808 5809 5809 5810 5810 5810 5811 5812 5813 5815 5817 5819 5820 5821 5823 5824 5826 5827 5828 5830 5831 5833 5835 5837 5838 5839 5840 5840 5840 5841 5842 5843 5844 5846 5847 5848 5849 5850 5851 5853 5854 5855 5856 5857 5858 5859 5860 5861 5861 5862 5863 5863
5797 5798 5799 5800 5800 5801 5802 5803 5803 5804 5804 5804 5805 5805 5805 5805 5805 5806 5806 5805 5805 5806 5806 5806 5806 5806 5806 5806 5806 5806 5806 5806 5806 5806 5807 5807 5808 5808 5808 5808 5810 5811 5812 5814 5816 5818 5819 5821 5822 5824 5825 5826 5828 5829 5831 5832 5834 5836 5838 5839 5839 5839 5840 5841 5842 5843 5844 5846 5846 5848 5849 5850 5851 5852 5853 5855 5855 5856 5857 5858 5859 5860 5861 5862 5862
5796 5796 5797 5798 5798 5799 5800 5801 5801 5802 5802 5802 5802 5802 5802 5802 5803 5803 5803 5803 5803 5804 5804 5804 5804 5804 5803 5804 5804 5804 5804 5804 5804 5804 5805 5805 5806 5806 5806 5806 5807 5808 5809 5811 5813 5815 5817 5818 5820 5821 5823 5824 5826 5827 5828 5830 5832 5834 5836 5837 5838 5838 5839 5840 5840 5841 5843 5844 5845 5846 5847 5848 5849 5850 5852 5853 5854 5855 5856 5857 5858 5859 5859 5860 5861
5794 5795 5796 5796 5797 5797 5797 5798 5799 5800 5800 5800 5800 5800 5800 5800 5800 5801 5801 5801 5801 5801 5801 5801 5801 5801 5802 5802 5802 5802 5802 5802 5802 5803 5803 5803 5804 5804 5804 5804 5804 5806 5808 5809 5811 5813 5814 5816 5817 5819 5821 5822 5823 5825 5826 5828 5829 5832 5834 5836 5836 5837 5838 5839 5839 5840 5841 5843 5843 5844 5845 5847 5848 5849 5850 5851 5852 5853 5854 5855 5856 5857 5858 5858 5859
5792 5793 5794 5794 5795 5795 5796 5796 5797 5797 5797 5798 5798 5797 5797 5797 5797 5798 5798 5798 5798 5799 5799 5799 5799 5799 5800 5800 5800 5800 5800 5801 5801 5801 5801 5801 5801 5802 5802 5802 5802 5803 5805 5807 5808 5810 5812 5813 5815 5816 5818 5819 5821 5822 5823 5825 5827 5829 5831 5834 5835 5835 5836 5837 5838 5839 5840 5841 5842 5843 5844 5845 5846 5847 5848 5849 5850 5851 5852 5853 5854 5855 5856 5856 5857
5789 5790 5791 5792 5793 5794 5794 5795 5795 5794 5794 5795 5795 5795 5795 5795 5795 5795 5795 5796 5796 5796 5796 5797 5797 5797 5797 5797 5797 5797 5798 5799 5799 5799 5799 5799 5799 5800 5800 5800 5800 5800 5802 5804 5805 5807 5809 5811 5812 5814 5815 5817 5818 5819 5821 5822 5824 5826 5828 5831 5833 5834 5834 5835 5836 5836 5837 5839 5840 5841 5842 5843 5844 5845 5846 5847 5847 5848 5849 5850 5851 5852 5853 5854 5855
5786 5787 5788 5789 5790 5791 5791 5792 5792 5792 5792 5792 5792 5792 5792 5792 5792 5792 5793 5793 5793 5794 5794 5794 5794 5795 5794 5794 5794 5794 5795 5796 5797 5797 5797 5797 5797 5798 5798 5798 5798 5798 5799 5801 5803 5804 5806 5808 5809 5810 5812 5814 5815 5817 5818 5820 5821 5823 5825 5828 5830 5832 5833 5833 5834 5835 5836 5837 5838 5839 5840 5841 5842 5843 5844 5844 5845 5846 5847 5848 5849 5850 5851 5852 5853
5783 5784 5785 5786 5787 5788 5788 5789 5789 5790 5789 5789 5789 5789 5789 5789 5788 5789 5790 5790 5790 5790 5791 5791 5791 5792 5791 5791 5790 5791 5793 5794 5795 5795 5795 5795 5795 5796 5796 5795 5796 5796 5797 5798 5800 5801 5803 5805 5806 5807 5809 5811 5813 5814 5815 5817 5819 5820 5822 5825 5827 5829 5831 5832 5832 5833 5834 5835 5836 5837 5838 5839 5840 5841 5842 5842 5843 5844 5845 5846 5847 5848 5849 5850 5851
5781 5781 5782 5783 5784 5784 5785 5785 5786 5786 5787 5787 5786 5786 5786 5786 5786 5786 5786 5787 5787 5787 5788 5788 5788 5788 5789 5788 5788 5789 5791 5792 5792 5792 5792 5793 5793 5794 5793 5793 5793 5793 5794 5795 5797 5799 5800 5802 5803 5803 5805 5807 5809 5811 5812 5814 5816 5818 5819 5822 5824 5826 5828 5829 5830 5831 5832 5833 5834 5835 5836 5837 5838 5838 5839 5840 5841 5842 5843 5844 5845 5846 5848 5849 5850
5777 5778 5779 5779 5780 5781 5782 5782 5782 5783 5784 5784 5784 5784 5783 5783 5783 5783 5783 5784 5784 5784 5785 5785 5785 5785 5786 5786 5786 5786 5788 5789 5789 5790 5790 5791 5791 5791 5791 5790 5790 5790 5791 5792 5794 5796 5797 5798 5799 5800 5802 5804 5806 5808 5810 5812 5813 5815 5816 5818 5821 5823 5825 5826 5827 5828 5829 5830 5831 5833 5834 5835 5836 5836 5837 5838 5838 5839 5841 5842 5843 5844 5846 5847 5848
5774 5774 5775 5775 5776 5777 5777 5778 5779 5779 5780 5781 5781 5781 5781 5780 5780 5780 5780 5781 5781 5781 5782 5782 5782 5782 5783 5783 5784 5784 5785 5786 5786 5787 5788 5788 5788 5789 5788 5788 5789 5789 5789 5790 5791 5793 5794 5795 5796 5796 5797 5800 5802 5804 5807 5809 5810 5812 5814 5815 5817 5819 5821 5823 5824 5825 5827 5828 5829 5830 5831 5832 5833 5834 5835 5836 5836 5837 5838 5839 5841 5842 5843 5844 5845
5770 5771 5771 5772 5772 5773 5773 5774 5774 5775 5776 5777 5778 5778 5778 5778 5777 5777 5777 5777 5777 5778 5779 5779 5779 5779 5780 5780 5781 5781 5781 5782 5783 5784 5785 5785 5785 5786 5786 5787 5787 5787 5787 5787 5789 5790 5791 5792 5794 5793 5795 5797 5799 5801 5803 5806 5807 5809 5811 5812 5814 5816 5818 5820 5821 5822 5824 5826 5827 5827 5828 5829 5830 5832 5833 5833 5834 5835 5836 5837 5838 5839 5840 5841 5843
5768 5768 5767 5768 5768 5769 5769 5770 5770 5771 5772 5773 5774 5775 5775 5775 5775 5775 5774 5774 5774 5774 5775 5776 5776 5776 5776 5777 5778 5778 5779 5779 5780 5781 5781 5781 5781 5783 5784 5785 5785 5784 5785 5786 5787 5787 5788 5788 5790 5792 5793 5794 5795 5797 5800 5802 5804 5806 5808 5809 5811 5813 5814 5816 5818 5819 5821 5822 5823 5824 5825 5827 5828 5829 5830 5831 5831 5832 5833 5834 5836 5836 5837 5838 5840
5765 5765 5764 5764 5765 5765 5766 5766 5767 5768 5768 5769 5770 5770 5771 5772 5772 5772 5772 5771 5771 5771 5771 5772 5773 5773 5773 5774 5774 5775 5776 5777 5777 5777 5777 5777 5778 5779 5782 5782 5782 5783 5784 5785 5784 5784 5785 5785 5787 5789 5790 5791 5792 5794 5797 5799 5801 5802 5804 5806 5807 5809 5811 5813 5815 5816 5817 5818 5820 5821 5822 5824 5825 5826 5827 5828 5828 5829 5831 5832 5833 5834 5835 5836 5837
5762 5762 5761 5760 5761 5762 5762 5763 5764 5764 5765 5765 5766 5766 5767 5768 5768 5768 5769 5768 5768 5768 5768 5769 5770 5770 5770 5771 5771 5772 5773 5774 5774 5774 5774 5774 5774 5776 5778 5780 5780 5781 5781 5782 5781 5782 5784 5785 5785 5785 5787 5788 5790 5791 5793 5795 5797 5799 5800 5802 5803 5805 5807 5809 5811 5813 5814 5815 5816 5818 5819 5820 5822 5822 5823 5824 5826 5827 5828 5829 5830 5831 5832 5833 5834
5759 5759 5758 5757 5758 5759 5760 5760 5760 5761 5762 5762 5762 5763 5763 5764 5764 5765 5765 5766 5765 5765 5765 5766 5766 5767 5767 5768 5768 5769 5770 5770 5771 5771 5771 5771 5771 5772 5774 5776 5777 5778 5779 5778 5778 5780 5782 5783 5782 5783 5784 5787 5788 5789 5790 5791 5792 5795 5796 5798 5800 5802 5803 5805 5807 5809 5810 5811 5812 5814 5816 5817 5818 5819 5820 5821 5822 5823 5824 5825 5826 5827 5828 5830 5831
5756 5755 5754 5754 5755 5756 5757 5757 5757 5758 5758 5759 5759 5759 5760 5760 5761 5761 5762 5763 5763 5762 5762 5763 5763 5764 5764 5765 5765 5766 5767 5767 5768 5768 5768 5768 5768 5769 5771 5772 5774 5776 5776 5775 5775 5777 5778 5779 5780 5780 5782 5784 5786 5787 5788 5788 5789 5791 5792 5794 5796 5798 5800 5802 5803 5804 5805 5807 5809 5811 5812 5813 5814 5815 5816 5818 5818 5819 5820 5821 5822 5823 5824 5826 5827
5752 5751 5750 5751 5752 5753 5754 5754 5755 5755 5755 5756 5756 5756 5756 5757 5757 5758 5759 5759 5760 5760 5759 5759 5760 5761 5761 5762 5762 5763 5764 5764 5765 5765 5765 5765 5766 5766 5767 5769 5770 5772 5773 5773 5773 5774 5775 5776 5778 5779 5780 5782 5784 5785 5785 5786 5787 5787 5788 5790 5792 5794 5796 5798 5799 5800 5801 5803 5805 5807 5808 5809 5810 5812 5813 5814 5814 5815 5816 5817 5818 5819 5820 5822 5823
5749 5748 5748 5749 5749 5750 5751 5752 5752 5752 5753 5753 5753 5753 5753 5754 5754 5755 5756 5756 5756 5757 5757 5757 5757 5758 5758 5759 5759 5760 5761 5761 5762 5763 5763 5763 5763 5763 5764 5765 5767 5768 5770 5771 5771 5771 5772 5773 5775 5776 5778 5780 5780 5782 5783 5784 5784 5784 5785 5787 5789 5791 5792 5794 5795 5796 5798 5799 5801 5802 5804 5806 5806 5808 5809 5810 5810 5811 5812 5813 5814 5815 5817 5818 5819
5747 5746 5746 5746 5746 5747 5748 5749 5749 5749 5750 5750 5750 5750 5750 5751 5751 5752 5752 5753 5753 5753 5754 5754 5754 5755 5755 5756 5756 5757 5758 5758 5759 5760 5760 5761 5761 5761 5762 5762 5763 5765 5766 5767 5768 5769 5769 5770 5771 5773 5775 5776 5777 5778 5779 5780 5781 5781 5783 5784 5785 5787 5788 5790 5791 5793 5794 5796 5797 5798 5800 5801 5802 5804 5805 5806 5807 5807 5808 5809 5810 5811 5813 5814 5815
5745 5744 5744 5744 5744 5744 5745 5746 5746 5746 5747 5747 5748 5748 5748 5748 5748 5749 5749 5750 5750 5750 5750 5751 5751 5752 5752 5753 5754 5754 5755 5756 5756 5757 5757 5758 5758 5759 5759 5760 5761 5762 5763 5764 5765 5766 5767 5768 5769 5770 5771 5773 5774 5774 5775 5777 5778 5779 5780 5782 5782 5783 5785 5786 5788 5789 5790 5791 5793 5794 5796 5797 5798 5800 5801 5802 5803 5803 5804 5805 5806 5807 5809 5810 5811
5742 5742 5741 5741 5741 5742 5742 5743 5743 5743 5744 5745 5745 5745 5745 5745 5745 5746 5746 5747 5747 5747 5747 5747 5748 5749 5749 5750 5751 5752 5752 5753 5753 5754 5754 5755 5756 5756 5757 5758 5759 5759 5760 5761 5762 5763 5764 5765 5766 5767 5768 5769 5770 5771 5771 5772 5773 5775 5777 5779 5779 5780 5782 5783 5784 5785 5786 5788 5789 5790 5791 5792 5793 5795 5797 5798 5799 5800 5800 5802 5803 5804 5805 5806 5807
5740 5740 5739 5739 5738 5739 5740 5741 5741 5741 5741 5742 5742 5742 5742 5742 5742 5742 5744 5744 5745 5745 5745 5745 5745 5745 5746 5747 5748 5749 5750 5750 5751 5752 5752 5753 5753 5754 5754 5755 5756 5757 5757 5758 5759 5760 5761 5762 5763 5764 5765 5766 5767 5767 5768 5769 5770 5771 5773 5775 5776 5777 5778 5779 5780 5781 5783 5784 5785 5786 5786 5788 5789 5791 5793 5794 5794 5795 5797 5798 5799 5800 5801 5802 5803
5738 5737 5737 5736 5736 5736 5737 5738 5738 5738 5738 5738 5739 5739 5739 5739 5739 5739 5740 5741 5742 5742 5742 5742 5742 5742 5742 5743 5744 5745 5746 5747 5748 5749 5750 5750 5751 5752 5752 5753 5753 5754 5755 5755 5756 5757 5758 5759 5760 5761 5762 5763 5763 5764 5765 5765 5766 5767 5769 5771 5772 5772 5774 5775 5776 5777 5778 5780 5782 5783 5782 5783 5785 5786 5787 5788 5790 5791 5793 5795 5796 5797 5798 5798 5799
5735 5735 5734 5734 5734 5734 5734 5734 5735 5736 5736 5736 5736 5736 5736 5736 5736 5736 5737 5738 5739 5740 5740 5740 5740 5740 5740 5740 5741 5741 5742 5744 5745 5746 5747 5747 5748 5749 5750 5750 5751 5751 5752 5753 5754 5754 5755 5756 5757 5758 5759 5760 5760 5761 5762 5762 5763 5764 5766 5767 5768 5769 5770 5771 5772 5773 5773 5775 5777 5779 5779 5778 5779 5781 5782 5782 5784 5786 5788 5790 5792 5793 5794 5794 5794